,,,PA_Meas_PMT16A,,PR_Meas_QMR101_102,,RH_Meas_QMH101,,SR_Meas_QMS101,,TA_Meas_QMH101,,GenWind,,GenWind,
date,time,status,PA,status,PR,status,RH,status,SR,status,TA,status,DirAvg,status,SpdAvg,
2011-12-04, 00:00:04,VALID,1001.55,VALID,0,VALID,81.3773,VALID,0,VALID,26.6635,VALID,5,VALID,0.939453,
2011-12-04, 00:01:04,VALID,1001.53,VALID,0,VALID,81.3086,VALID,0.0815089,VALID,26.7004,VALID,14,VALID,1.40234,
2011-12-04, 00:02:04,VALID,1001.52,VALID,0,VALID,81.4078,VALID,0.0815089,VALID,26.7004,VALID,18,VALID,0.90625,
2011-12-04, 00:03:04,VALID,1001.5,VALID,0,VALID,81.6061,VALID,0.0815089,VALID,26.6809,VALID,7,VALID,1.14141,
2011-12-04, 00:04:04,VALID,1001.52,VALID,0,VALID,81.7053,VALID,0,VALID,26.6614,VALID,8,VALID,1.31484,
2011-12-04, 00:05:04,VALID,1001.51,VALID,0,VALID,81.5832,VALID,0,VALID,26.6614,VALID,3,VALID,0.943359,
2011-12-04, 00:06:04,VALID,1001.51,VALID,0,VALID,81.8121,VALID,0.0815089,VALID,26.6809,VALID,9,VALID,1.03086,
2011-12-04, 00:07:04,VALID,1001.54,VALID,0,VALID,81.9265,VALID,0.0815089,VALID,26.7199,VALID,355,VALID,0.834766,
2011-12-04, 00:08:04,VALID,1001.51,VALID,0,VALID,81.7358,VALID,0,VALID,26.6809,VALID,360,VALID,1.21953,
2011-12-04, 00:09:04,VALID,1001.52,VALID,0,VALID,82.0181,VALID,0,VALID,26.6789,VALID,34,VALID,0.897266,
2011-12-04, 00:10:04,VALID,1001.53,VALID,0,VALID,82.1783,VALID,0.0815089,VALID,26.642,VALID,18,VALID,0.809766,
2011-12-04, 00:11:04,VALID,1001.52,VALID,0,VALID,82.6971,VALID,0.0815089,VALID,26.5835,VALID,11,VALID,0.485547,
2011-12-04, 00:12:04,VALID,1001.55,VALID,0,VALID,82.7962,VALID,0.0815089,VALID,26.5056,VALID,4,VALID,0.993359,
2011-12-04, 00:13:04,VALID,1001.55,VALID,0,VALID,82.842,VALID,0,VALID,26.5036,VALID,359,VALID,0.919141,
2011-12-04, 00:14:04,VALID,1001.54,VALID,0,VALID,82.9336,VALID,0,VALID,26.5251,VALID,11,VALID,0.973437,
2011-12-04, 00:15:04,VALID,1001.56,VALID,0,VALID,82.9412,VALID,0,VALID,26.5446,VALID,8,VALID,1.22227,
2011-12-04, 00:16:04,VALID,1001.53,VALID,0,VALID,82.308,VALID,0.0815089,VALID,26.644,VALID,14,VALID,1.20859,
2011-12-04, 00:17:04,VALID,1001.53,VALID,0,VALID,81.9494,VALID,0.0815089,VALID,26.6789,VALID,10,VALID,1.42617,
2011-12-04, 00:18:04,VALID,1001.56,VALID,0,VALID,82.1325,VALID,0.0815089,VALID,26.7199,VALID,16,VALID,0.508594,
2011-12-04, 00:19:04,VALID,1001.55,VALID,0,VALID,82.2851,VALID,0,VALID,26.683,VALID,360,VALID,0.505469,
2011-12-04, 00:20:04,VALID,1001.54,VALID,0,VALID,82.5521,VALID,0.0815089,VALID,26.642,VALID,3,VALID,0.767187,
2011-12-04, 00:21:04,VALID,1001.53,VALID,0,VALID,82.7657,VALID,0.0815089,VALID,26.5835,VALID,16,VALID,0.667969,
2011-12-04, 00:22:04,VALID,1001.52,VALID,0,VALID,82.7734,VALID,0,VALID,26.5661,VALID,26,VALID,0.860547,
2011-12-04, 00:23:04,VALID,1001.56,VALID,0,VALID,83.0022,VALID,0.0815089,VALID,26.5251,VALID,25,VALID,0.634766,
2011-12-04, 00:24:04,VALID,1001.55,VALID,0,VALID,83.3379,VALID,0.0815089,VALID,26.4667,VALID,27,VALID,0.177344,
2011-12-04, 00:25:04,VALID,1001.56,VALID,0,VALID,83.8643,VALID,0.0815089,VALID,26.4062,VALID,27,VALID,0.592969,
2011-12-04, 00:26:04,VALID,1001.57,VALID,0,VALID,84.1313,VALID,0,VALID,26.3303,VALID,22,VALID,1.22344,
2011-12-04, 00:27:04,VALID,1001.56,VALID,0,VALID,84.2915,VALID,0.0815089,VALID,26.3498,VALID,15,VALID,0.670313,
2011-12-04, 00:28:04,VALID,1001.56,VALID,0,VALID,84.3983,VALID,0.0815089,VALID,26.3108,VALID,12,VALID,0.459375,
2011-12-04, 00:29:04,VALID,1001.56,VALID,0,VALID,84.6043,VALID,0.0815089,VALID,26.2309,VALID,11,VALID,0.404687,
2011-12-04, 00:30:04,VALID,1001.53,VALID,0,VALID,84.6806,VALID,0.0815089,VALID,26.2134,VALID,328,VALID,0.439844,
2011-12-04, 00:31:04,VALID,1001.49,VALID,0,VALID,84.9552,VALID,0,VALID,26.155,VALID,319,VALID,0.161719,
2011-12-04, 00:32:04,VALID,1001.49,VALID,0,VALID,85.1459,VALID,0,VALID,26.1375,VALID,318,VALID,0.0761719,
2011-12-04, 00:33:04,VALID,1001.45,VALID,0,VALID,85.4663,VALID,0,VALID,26.0791,VALID,319,VALID,0.00117188,
2011-12-04, 00:34:04,VALID,1001.42,VALID,0,VALID,85.5503,VALID,0,VALID,26.0421,VALID,330,VALID,0.379297,
2011-12-04, 00:35:04,VALID,1001.4,VALID,0,VALID,85.9165,VALID,0,VALID,25.9232,VALID,330,VALID,0.341797,
2011-12-04, 00:36:04,VALID,1001.4,VALID,0,VALID,86.3818,VALID,0,VALID,25.8648,VALID,330,VALID,0.435156,
2011-12-04, 00:37:04,VALID,1001.38,VALID,0,VALID,86.7556,VALID,0,VALID,25.746,VALID,330,VALID,0.385547,
2011-12-04, 00:38:04,VALID,1001.38,VALID,0,VALID,87.0532,VALID,0,VALID,25.6506,VALID,330,VALID,0.396094,
2011-12-04, 00:39:04,VALID,1001.35,VALID,0,VALID,87.4956,VALID,0,VALID,25.5727,VALID,330,VALID,0.205469,
2011-12-04, 00:40:04,VALID,1001.37,VALID,0,VALID,87.9076,VALID,0,VALID,25.4734,VALID,330,VALID,0,
2011-12-04, 00:41:04,VALID,1001.35,VALID,0,VALID,88.1822,VALID,0,VALID,25.4149,VALID,330,VALID,0.190234,
2011-12-04, 00:42:04,VALID,1001.34,VALID,0,VALID,88.5484,VALID,0,VALID,25.3565,VALID,330,VALID,0,
2011-12-04, 00:43:04,VALID,1001.33,VALID,0,VALID,88.762,VALID,0,VALID,25.337,VALID,326,VALID,0.541797,
2011-12-04, 00:44:04,VALID,1001.34,VALID,0,VALID,88.9222,VALID,0,VALID,25.339,VALID,293,VALID,0.0992187,
2011-12-04, 00:45:04,VALID,1001.31,VALID,0,VALID,89.1282,VALID,0,VALID,25.3,VALID,293,VALID,0.187109,
2011-12-04, 00:46:04,VALID,1001.3,VALID,0,VALID,89.2808,VALID,0,VALID,25.2397,VALID,293,VALID,0.459375,
2011-12-04, 00:47:04,VALID,1001.28,VALID,0,VALID,89.5402,VALID,0,VALID,25.1637,VALID,293,VALID,0.330078,
2011-12-04, 00:48:04,VALID,1001.26,VALID,0,VALID,89.8758,VALID,0,VALID,25.1053,VALID,307,VALID,0.444531,
2011-12-04, 00:49:04,VALID,1001.25,VALID,0,VALID,90.2191,VALID,0,VALID,25.0469,VALID,307,VALID,0.423047,
2011-12-04, 00:50:04,VALID,1001.22,VALID,0,VALID,90.5319,VALID,0,VALID,24.9671,VALID,308,VALID,0.419531,
2011-12-04, 00:51:04,VALID,1001.23,VALID,0,VALID,90.7837,VALID,0,VALID,24.93,VALID,308,VALID,0.535156,
2011-12-04, 00:52:04,VALID,1001.21,VALID,0,VALID,91.0431,VALID,0,VALID,24.8503,VALID,308,VALID,0.482031,
2011-12-04, 00:53:04,VALID,1001.18,VALID,0,VALID,91.2414,VALID,0,VALID,24.8132,VALID,308,VALID,0.345313,
2011-12-04, 00:54:04,VALID,1001.16,VALID,0,VALID,91.4474,VALID,0,VALID,24.7743,VALID,308,VALID,0.323047,
2011-12-04, 00:55:04,VALID,1001.18,VALID,0,VALID,91.6457,VALID,0,VALID,24.7159,VALID,308,VALID,0.274609,
2011-12-04, 00:56:04,VALID,1001.13,VALID,0,VALID,91.7525,VALID,0,VALID,24.6769,VALID,308,VALID,0.285156,
2011-12-04, 00:57:04,VALID,1001.13,VALID,0,VALID,91.9051,VALID,0,VALID,24.6361,VALID,308,VALID,0.248047,
2011-12-04, 00:58:04,VALID,1001.17,VALID,0,VALID,92.0196,VALID,0,VALID,24.6166,VALID,308,VALID,0.0851562,
2011-12-04, 00:59:04,VALID,1001.1,VALID,0,VALID,92.2255,VALID,0,VALID,24.6185,VALID,308,VALID,0.226953,
2011-12-04, 01:00:04,VALID,1001.08,VALID,0,VALID,92.4163,VALID,0,VALID,24.5777,VALID,4,VALID,0.511719,
2011-12-04, 01:01:04,VALID,1001.09,VALID,0,VALID,92.4849,VALID,0,VALID,24.5796,VALID,4,VALID,0.315625,
2011-12-04, 01:02:04,VALID,1001.05,VALID,0,VALID,92.5383,VALID,0,VALID,24.5388,VALID,4,VALID,0.034375,
2011-12-04, 01:03:04,VALID,1001.01,VALID,0,VALID,92.6909,VALID,0,VALID,24.5406,VALID,4,VALID,0.190625,
2011-12-04, 01:04:04,VALID,1001,VALID,0,VALID,92.8282,VALID,0.0815089,VALID,24.5193,VALID,4,VALID,0.363281,
2011-12-04, 01:05:04,VALID,1000.99,VALID,0,VALID,92.8816,VALID,0,VALID,24.4998,VALID,4,VALID,0.370703,
2011-12-04, 01:06:04,VALID,1000.98,VALID,0,VALID,92.8664,VALID,0,VALID,24.459,VALID,4,VALID,0.377344,
2011-12-04, 01:07:04,VALID,1000.98,VALID,0,VALID,92.9808,VALID,0,VALID,24.4609,VALID,17,VALID,0.508984,
2011-12-04, 01:08:04,VALID,1000.97,VALID,0,VALID,93.1791,VALID,0,VALID,24.4609,VALID,20,VALID,0.525,
2011-12-04, 01:09:04,VALID,1000.96,VALID,0,VALID,93.2249,VALID,0,VALID,24.4414,VALID,20,VALID,0.161328,
2011-12-04, 01:10:04,VALID,1000.97,VALID,0,VALID,93.2707,VALID,0.0815089,VALID,24.4414,VALID,20,VALID,0.0570313,
2011-12-04, 01:11:04,VALID,1000.96,VALID,0,VALID,93.3088,VALID,0,VALID,24.4414,VALID,20,VALID,0.421094,
2011-12-04, 01:12:04,VALID,1000.96,VALID,0,VALID,93.408,VALID,0,VALID,24.422,VALID,80,VALID,0.493359,
2011-12-04, 01:13:04,VALID,1000.94,VALID,0,VALID,93.3851,VALID,0,VALID,24.3812,VALID,95,VALID,0.560938,
2011-12-04, 01:14:04,VALID,1000.94,VALID,0,VALID,93.4385,VALID,0,VALID,24.4025,VALID,103,VALID,0.432813,
2011-12-04, 01:15:04,VALID,1000.94,VALID,0,VALID,93.4385,VALID,0,VALID,24.383,VALID,103,VALID,0.161328,
2011-12-04, 01:16:04,VALID,1000.95,VALID,0,VALID,93.5148,VALID,0,VALID,24.4025,VALID,103,VALID,0,
2011-12-04, 01:17:04,VALID,1000.95,VALID,0,VALID,93.5148,VALID,0,VALID,24.4025,VALID,103,VALID,0,
2011-12-04, 01:18:04,VALID,1000.98,VALID,0,VALID,93.4767,VALID,0,VALID,24.422,VALID,103,VALID,0,
2011-12-04, 01:19:04,VALID,1000.98,VALID,0,VALID,93.4996,VALID,0,VALID,24.4025,VALID,103,VALID,0,
2011-12-04, 01:20:04,VALID,1000.97,VALID,0,VALID,93.5148,VALID,0,VALID,24.4433,VALID,103,VALID,0,
2011-12-04, 01:21:04,VALID,1000.97,VALID,0,VALID,93.553,VALID,0,VALID,24.4006,VALID,103,VALID,0.174609,
2011-12-04, 01:22:04,VALID,1000.96,VALID,0,VALID,93.3622,VALID,0,VALID,24.4025,VALID,103,VALID,0.359766,
2011-12-04, 01:23:04,VALID,1000.97,VALID,0,VALID,93.3699,VALID,0.0815089,VALID,24.383,VALID,102,VALID,0.161719,
2011-12-04, 01:24:04,VALID,1000.95,VALID,0,VALID,93.4156,VALID,0.0815089,VALID,24.3636,VALID,102,VALID,0,
2011-12-04, 01:25:04,VALID,1000.93,VALID,0,VALID,93.3241,VALID,0,VALID,24.3441,VALID,102,VALID,0.375391,
2011-12-04, 01:26:04,VALID,1000.92,VALID,0,VALID,93.3928,VALID,0.0815089,VALID,24.3052,VALID,102,VALID,0.164063,
2011-12-04, 01:27:04,VALID,1000.89,VALID,0,VALID,93.553,VALID,0,VALID,24.3052,VALID,102,VALID,0.430469,
2011-12-04, 01:28:04,VALID,1000.9,VALID,0,VALID,93.5377,VALID,0,VALID,24.3052,VALID,102,VALID,0.208594,
2011-12-04, 01:29:04,VALID,1000.85,VALID,0,VALID,93.5682,VALID,0.0815089,VALID,24.307,VALID,102,VALID,0.148438,
2011-12-04, 01:30:04,VALID,1000.83,VALID,0,VALID,93.6521,VALID,0,VALID,24.307,VALID,102,VALID,0.278125,
2011-12-04, 01:31:04,VALID,1000.84,VALID,0,VALID,93.6674,VALID,0,VALID,24.2857,VALID,102,VALID,0.021875,
2011-12-04, 01:32:04,VALID,1000.81,VALID,0,VALID,93.7208,VALID,0,VALID,24.2662,VALID,102,VALID,0.228125,
2011-12-04, 01:33:04,VALID,1000.75,VALID,0,VALID,93.675,VALID,0.0815089,VALID,24.2255,VALID,102,VALID,0.328516,
2011-12-04, 01:34:04,VALID,1000.72,VALID,0,VALID,93.6826,VALID,0,VALID,24.2468,VALID,102,VALID,0.166406,
2011-12-04, 01:35:04,VALID,1000.7,VALID,0,VALID,93.7208,VALID,0,VALID,24.1865,VALID,102,VALID,0,
2011-12-04, 01:36:04,VALID,1000.65,VALID,0,VALID,93.7818,VALID,0,VALID,24.2078,VALID,102,VALID,0,
2011-12-04, 01:37:04,VALID,1000.63,VALID,0,VALID,93.8276,VALID,0.0815089,VALID,24.1884,VALID,102,VALID,0,
2011-12-04, 01:38:04,VALID,1000.6,VALID,0,VALID,93.8352,VALID,0.0815089,VALID,24.1671,VALID,102,VALID,0,
2011-12-04, 01:39:04,VALID,1000.59,VALID,0,VALID,93.8429,VALID,0,VALID,24.1671,VALID,102,VALID,0,
2011-12-04, 01:40:04,VALID,1000.56,VALID,0,VALID,93.942,VALID,0.0815089,VALID,24.1476,VALID,102,VALID,0.0527344,
2011-12-04, 01:41:04,VALID,1000.55,VALID,0,VALID,93.9497,VALID,0.0815089,VALID,24.1689,VALID,102,VALID,0,
2011-12-04, 01:42:04,VALID,1000.52,VALID,0,VALID,93.8963,VALID,0,VALID,24.1494,VALID,102,VALID,0,
2011-12-04, 01:43:04,VALID,1000.51,VALID,0,VALID,93.9344,VALID,0.0815089,VALID,24.1281,VALID,102,VALID,0,
2011-12-04, 01:44:04,VALID,1000.49,VALID,0,VALID,94.0183,VALID,0,VALID,24.1494,VALID,102,VALID,0,
2011-12-04, 01:45:04,VALID,1000.46,VALID,0,VALID,94.087,VALID,0.0815089,VALID,24.1494,VALID,102,VALID,0,
2011-12-04, 01:46:04,VALID,1000.42,VALID,0,VALID,94.1938,VALID,0.0815089,VALID,24.1689,VALID,102,VALID,0,
2011-12-04, 01:47:04,VALID,1000.39,VALID,0,VALID,94.2167,VALID,0.0815089,VALID,24.1689,VALID,102,VALID,0,
2011-12-04, 01:48:04,VALID,1000.35,VALID,0,VALID,94.2319,VALID,0.0815089,VALID,24.1476,VALID,102,VALID,0.208594,
2011-12-04, 01:49:04,VALID,1000.35,VALID,0,VALID,94.1404,VALID,0,VALID,24.1476,VALID,102,VALID,0.300781,
2011-12-04, 01:50:04,VALID,1000.32,VALID,0,VALID,94.1251,VALID,0,VALID,24.1707,VALID,102,VALID,0.272266,
2011-12-04, 01:51:04,VALID,1000.33,VALID,0,VALID,94.087,VALID,0,VALID,24.13,VALID,102,VALID,0.390234,
2011-12-04, 01:52:04,VALID,1000.31,VALID,0,VALID,94.1175,VALID,0,VALID,24.0697,VALID,102,VALID,0.295703,
2011-12-04, 01:53:04,VALID,1000.32,VALID,0,VALID,94.148,VALID,0.0815089,VALID,24.0697,VALID,102,VALID,0.251563,
2011-12-04, 01:54:04,VALID,1000.33,VALID,0,VALID,94.1938,VALID,0.0815089,VALID,24.091,VALID,102,VALID,0.185547,
2011-12-04, 01:55:04,VALID,1000.31,VALID,0,VALID,94.3158,VALID,0.0815089,VALID,24.091,VALID,102,VALID,0.176563,
2011-12-04, 01:56:04,VALID,1000.32,VALID,0,VALID,94.3387,VALID,0.0815089,VALID,24.0716,VALID,102,VALID,0.1625,
2011-12-04, 01:57:04,VALID,1000.31,VALID,0,VALID,94.3616,VALID,0.0815089,VALID,24.0697,VALID,102,VALID,0.260547,
2011-12-04, 01:58:04,VALID,1000.31,VALID,0,VALID,94.3616,VALID,0.0815089,VALID,24.0697,VALID,101,VALID,0.250391,
2011-12-04, 01:59:04,VALID,1000.32,VALID,0,VALID,94.3464,VALID,0.0815089,VALID,24.0716,VALID,102,VALID,0.372266,
2011-12-04, 02:00:04,VALID,1000.31,VALID,0,VALID,94.4074,VALID,0,VALID,24.0503,VALID,101,VALID,0.413672,
2011-12-04, 02:01:04,VALID,1000.31,VALID,0,VALID,94.4455,VALID,0,VALID,24.0521,VALID,102,VALID,0.441797,
2011-12-04, 02:02:04,VALID,1000.3,VALID,0,VALID,94.3692,VALID,0,VALID,24.0539,VALID,90,VALID,0.513281,
2011-12-04, 02:03:04,VALID,1000.31,VALID,0,VALID,94.4074,VALID,0,VALID,24.0132,VALID,88,VALID,0.329297,
2011-12-04, 02:04:04,VALID,1000.31,VALID,0,VALID,94.4455,VALID,0,VALID,24.0132,VALID,88,VALID,0.355859,
2011-12-04, 02:05:04,VALID,1000.31,VALID,0,VALID,94.5066,VALID,0,VALID,24.0345,VALID,88,VALID,0.229687,
2011-12-04, 02:06:04,VALID,1000.31,VALID,0,VALID,94.4913,VALID,0,VALID,24.0132,VALID,88,VALID,0.201562,
2011-12-04, 02:07:04,VALID,1000.31,VALID,0,VALID,94.4837,VALID,0,VALID,24.0132,VALID,88,VALID,0.359766,
2011-12-04, 02:08:04,VALID,1000.27,VALID,0,VALID,94.5371,VALID,0,VALID,24.0132,VALID,88,VALID,0.393359,
2011-12-04, 02:09:04,VALID,1000.27,VALID,0,VALID,94.56,VALID,0,VALID,24.0132,VALID,88,VALID,0.338281,
2011-12-04, 02:10:04,VALID,1000.24,VALID,0,VALID,94.5142,VALID,0,VALID,24.0132,VALID,88,VALID,0.439844,
2011-12-04, 02:11:04,VALID,1000.23,VALID,0,VALID,94.6439,VALID,0,VALID,24.0539,VALID,88,VALID,0.505469,
2011-12-04, 02:12:04,VALID,1000.19,VALID,0,VALID,94.6744,VALID,0,VALID,24.0716,VALID,79,VALID,0.471875,
2011-12-04, 02:13:04,VALID,1000.2,VALID,0,VALID,94.621,VALID,0.0815089,VALID,24.0716,VALID,79,VALID,0.339844,
2011-12-04, 02:14:04,VALID,1000.2,VALID,0,VALID,94.5905,VALID,0.0815089,VALID,24.0308,VALID,79,VALID,0.380078,
2011-12-04, 02:15:04,VALID,1000.15,VALID,0,VALID,94.6057,VALID,0.0815089,VALID,24.0308,VALID,79,VALID,0.317969,
2011-12-04, 02:16:04,VALID,1000.17,VALID,0,VALID,94.6744,VALID,0,VALID,24.0734,VALID,79,VALID,0.246094,
2011-12-04, 02:17:04,VALID,1000.14,VALID,0,VALID,94.6744,VALID,0,VALID,24.0734,VALID,79,VALID,0.147266,
2011-12-04, 02:18:04,VALID,1000.16,VALID,0,VALID,94.6363,VALID,0,VALID,24.0539,VALID,79,VALID,0.154297,
2011-12-04, 02:19:04,VALID,1000.18,VALID,0,VALID,94.6591,VALID,0,VALID,24.0734,VALID,79,VALID,0.0371094,
2011-12-04, 02:20:04,VALID,1000.16,VALID,0,VALID,94.6363,VALID,0,VALID,24.0326,VALID,79,VALID,0,
2011-12-04, 02:21:04,VALID,1000.19,VALID,0,VALID,94.6134,VALID,0,VALID,24.0326,VALID,79,VALID,0.183203,
2011-12-04, 02:22:04,VALID,1000.2,VALID,0,VALID,94.6973,VALID,0,VALID,24.0345,VALID,79,VALID,0.225391,
2011-12-04, 02:23:04,VALID,1000.19,VALID,0,VALID,94.766,VALID,0,VALID,24.0734,VALID,79,VALID,0.236719,
2011-12-04, 02:24:04,VALID,1000.23,VALID,0,VALID,94.7965,VALID,0,VALID,24.0734,VALID,79,VALID,0.286719,
2011-12-04, 02:25:04,VALID,1000.24,VALID,0,VALID,94.7507,VALID,0,VALID,24.0734,VALID,76,VALID,0.413281,
2011-12-04, 02:26:04,VALID,1000.2,VALID,0,VALID,94.7278,VALID,0,VALID,24.0326,VALID,69,VALID,0.404687,
2011-12-04, 02:27:04,VALID,1000.21,VALID,0,VALID,94.7431,VALID,0,VALID,24.0947,VALID,69,VALID,0.244531,
2011-12-04, 02:28:04,VALID,1000.21,VALID,0,VALID,94.7125,VALID,0,VALID,24.0539,VALID,69,VALID,0.185156,
2011-12-04, 02:29:04,VALID,1000.19,VALID,0,VALID,94.7049,VALID,0,VALID,24.0132,VALID,69,VALID,0.145313,
2011-12-04, 02:30:04,VALID,1000.19,VALID,0,VALID,94.7736,VALID,0,VALID,24.0539,VALID,69,VALID,0.402734,
2011-12-04, 02:31:04,VALID,1000.18,VALID,0,VALID,94.6897,VALID,0,VALID,24.0132,VALID,69,VALID,0.403516,
2011-12-04, 02:32:04,VALID,1000.18,VALID,0,VALID,94.7278,VALID,0,VALID,24.015,VALID,69,VALID,0.398047,
2011-12-04, 02:33:04,VALID,1000.17,VALID,0,VALID,94.7049,VALID,0,VALID,24.0132,VALID,69,VALID,0.452734,
2011-12-04, 02:34:04,VALID,1000.15,VALID,0,VALID,94.6744,VALID,0,VALID,23.9742,VALID,69,VALID,0.374609,
2011-12-04, 02:35:04,VALID,1000.16,VALID,0,VALID,94.6973,VALID,0,VALID,23.9761,VALID,69,VALID,0.33125,
2011-12-04, 02:36:04,VALID,1000.14,VALID,0,VALID,94.7278,VALID,0,VALID,23.9761,VALID,69,VALID,0.474609,
2011-12-04, 02:37:04,VALID,1000.11,VALID,0,VALID,94.8117,VALID,0,VALID,23.9548,VALID,62,VALID,0.557422,
2011-12-04, 02:38:04,VALID,1000.11,VALID,0,VALID,94.8499,VALID,0,VALID,23.9742,VALID,62,VALID,0.423828,
2011-12-04, 02:39:04,VALID,1000.09,VALID,0,VALID,94.8956,VALID,0,VALID,23.9937,VALID,62,VALID,0.321875,
2011-12-04, 02:40:04,VALID,1000.06,VALID,0,VALID,94.9185,VALID,0,VALID,24.0132,VALID,62,VALID,0.153125,
2011-12-04, 02:41:04,VALID,1000.06,VALID,0,VALID,94.9338,VALID,0,VALID,24.015,VALID,62,VALID,0.264453,
2011-12-04, 02:42:04,VALID,1000.05,VALID,0,VALID,94.9185,VALID,0,VALID,23.9937,VALID,62,VALID,0.289844,
2011-12-04, 02:43:05,VALID,1000.05,VALID,0,VALID,94.9262,VALID,0,VALID,24.015,VALID,62,VALID,0.250781,
2011-12-04, 02:44:05,VALID,1000.04,VALID,0,VALID,94.9109,VALID,0,VALID,23.9937,VALID,62,VALID,0.159375,
2011-12-04, 02:45:05,VALID,1000.02,VALID,0,VALID,94.8422,VALID,0,VALID,23.9761,VALID,62,VALID,0.232031,
2011-12-04, 02:46:05,VALID,999.992,VALID,0,VALID,94.7888,VALID,0,VALID,23.9548,VALID,62,VALID,0,
2011-12-04, 02:47:05,VALID,999.966,VALID,0,VALID,94.7431,VALID,0,VALID,23.9353,VALID,62,VALID,0,
2011-12-04, 02:48:05,VALID,999.947,VALID,0,VALID,94.7431,VALID,0,VALID,23.8964,VALID,62,VALID,0,
2011-12-04, 02:49:05,VALID,999.939,VALID,0,VALID,94.8117,VALID,0,VALID,23.9177,VALID,62,VALID,0,
2011-12-04, 02:50:05,VALID,999.911,VALID,0,VALID,94.9414,VALID,0,VALID,23.9159,VALID,62,VALID,0,
2011-12-04, 02:51:05,VALID,999.905,VALID,0,VALID,95.0024,VALID,0,VALID,23.9566,VALID,62,VALID,0,
2011-12-04, 02:52:05,VALID,999.893,VALID,0,VALID,95.0635,VALID,0,VALID,23.9761,VALID,62,VALID,0,
2011-12-04, 02:53:05,VALID,999.902,VALID,0,VALID,95.033,VALID,0,VALID,23.9973,VALID,62,VALID,0,
2011-12-04, 02:54:05,VALID,999.912,VALID,0,VALID,95.0101,VALID,0,VALID,23.9548,VALID,62,VALID,0,
2011-12-04, 02:55:05,VALID,999.885,VALID,0,VALID,95.0864,VALID,0,VALID,24.015,VALID,61,VALID,0.496875,
2011-12-04, 02:56:05,VALID,999.905,VALID,0,VALID,94.9948,VALID,0,VALID,23.9742,VALID,57,VALID,0.526953,
2011-12-04, 02:57:05,VALID,999.892,VALID,0,VALID,95.0101,VALID,0,VALID,24.015,VALID,57,VALID,0.575781,
2011-12-04, 02:58:05,VALID,999.88,VALID,0,VALID,95.1093,VALID,0,VALID,24.0132,VALID,48,VALID,0.623047,
2011-12-04, 02:59:05,VALID,999.87,VALID,0,VALID,95.0864,VALID,0,VALID,24.0539,VALID,45,VALID,0.650781,
2011-12-04, 03:00:05,VALID,999.859,VALID,0,VALID,94.9338,VALID,0,VALID,23.9724,VALID,41,VALID,0.7125,
2011-12-04, 03:01:05,VALID,999.847,VALID,0,VALID,94.9567,VALID,0,VALID,23.9937,VALID,38,VALID,0.617578,
2011-12-04, 03:02:05,VALID,999.822,VALID,0,VALID,94.9185,VALID,0,VALID,23.9548,VALID,38,VALID,0.591016,
2011-12-04, 03:03:05,VALID,999.794,VALID,0,VALID,94.9719,VALID,0,VALID,23.9548,VALID,38,VALID,0.549219,
2011-12-04, 03:04:05,VALID,999.804,VALID,0,VALID,94.9719,VALID,0,VALID,23.9548,VALID,38,VALID,0.604297,
2011-12-04, 03:05:05,VALID,999.793,VALID,0,VALID,94.9567,VALID,0,VALID,23.9548,VALID,38,VALID,0.396094,
2011-12-04, 03:06:05,VALID,999.782,VALID,0,VALID,94.949,VALID,0,VALID,23.9353,VALID,38,VALID,0.326562,
2011-12-04, 03:07:05,VALID,999.792,VALID,0,VALID,95.0253,VALID,0,VALID,23.9566,VALID,38,VALID,0.150781,
2011-12-04, 03:08:05,VALID,999.779,VALID,0,VALID,95.0711,VALID,0,VALID,23.9742,VALID,38,VALID,0.157813,
2011-12-04, 03:09:05,VALID,999.79,VALID,0,VALID,95.1016,VALID,0,VALID,24.015,VALID,38,VALID,0.104297,
2011-12-04, 03:10:05,VALID,999.771,VALID,0,VALID,95.094,VALID,0,VALID,24.015,VALID,38,VALID,0.118359,
2011-12-04, 03:11:05,VALID,999.78,VALID,0,VALID,95.155,VALID,0,VALID,24.0345,VALID,38,VALID,0.267578,
2011-12-04, 03:12:05,VALID,999.757,VALID,0,VALID,95.1474,VALID,0,VALID,24.0132,VALID,38,VALID,0.276953,
2011-12-04, 03:13:05,VALID,999.766,VALID,0,VALID,95.094,VALID,0,VALID,24.0345,VALID,38,VALID,0.411328,
2011-12-04, 03:14:05,VALID,999.795,VALID,0,VALID,95.1398,VALID,0,VALID,24.0345,VALID,38,VALID,0.594922,
2011-12-04, 03:15:05,VALID,999.772,VALID,0,VALID,95.1779,VALID,0,VALID,24.0326,VALID,38,VALID,0.535156,
2011-12-04, 03:16:05,VALID,999.793,VALID,0,VALID,95.155,VALID,0,VALID,24.0521,VALID,38,VALID,0.657422,
2011-12-04, 03:17:05,VALID,999.827,VALID,0,VALID,95.1398,VALID,0,VALID,24.0521,VALID,38,VALID,0.413281,
2011-12-04, 03:18:05,VALID,999.825,VALID,0,VALID,94.9567,VALID,0,VALID,23.9724,VALID,38,VALID,0.49375,
2011-12-04, 03:19:05,VALID,999.829,VALID,0,VALID,94.9719,VALID,0.0815089,VALID,23.9937,VALID,37,VALID,0.452734,
2011-12-04, 03:20:05,VALID,999.844,VALID,0,VALID,95.0864,VALID,0.0815089,VALID,23.9724,VALID,35,VALID,0.544922,
2011-12-04, 03:21:05,VALID,999.846,VALID,0,VALID,95.1779,VALID,0.0815089,VALID,24.0326,VALID,32,VALID,0.520312,
2011-12-04, 03:22:05,VALID,999.853,VALID,0,VALID,95.2084,VALID,0,VALID,24.0521,VALID,31,VALID,0.398047,
2011-12-04, 03:23:05,VALID,999.856,VALID,0,VALID,95.1703,VALID,0.0815089,VALID,24.0308,VALID,23,VALID,0.639844,
2011-12-04, 03:24:05,VALID,999.853,VALID,0,VALID,95.1627,VALID,0,VALID,24.0114,VALID,22,VALID,0.524609,
2011-12-04, 03:25:05,VALID,999.874,VALID,0,VALID,95.1703,VALID,0,VALID,24.0114,VALID,22,VALID,0.494531,
2011-12-04, 03:26:05,VALID,999.882,VALID,0,VALID,95.2389,VALID,0,VALID,24.0716,VALID,22,VALID,0.520312,
2011-12-04, 03:27:05,VALID,999.866,VALID,0,VALID,95.2008,VALID,0,VALID,24.0521,VALID,22,VALID,0.561719,
2011-12-04, 03:28:05,VALID,999.907,VALID,0,VALID,95.1855,VALID,0,VALID,24.0308,VALID,22,VALID,0.603516,
2011-12-04, 03:29:05,VALID,999.899,VALID,0,VALID,95.1779,VALID,0,VALID,24.0521,VALID,22,VALID,0.573047,
2011-12-04, 03:30:05,VALID,999.896,VALID,0,VALID,95.1703,VALID,0.0815089,VALID,24.0326,VALID,22,VALID,0.618359,
2011-12-04, 03:31:05,VALID,999.877,VALID,0,VALID,95.1932,VALID,0.0815089,VALID,24.0308,VALID,19,VALID,0.634375,
2011-12-04, 03:32:05,VALID,999.873,VALID,0,VALID,95.2084,VALID,0.0815089,VALID,24.0521,VALID,15,VALID,0.670703,
2011-12-04, 03:33:05,VALID,999.894,VALID,0,VALID,95.2237,VALID,0,VALID,24.0326,VALID,14,VALID,0.636328,
2011-12-04, 03:34:05,VALID,999.881,VALID,0,VALID,95.2466,VALID,0,VALID,24.0114,VALID,13,VALID,0.599609,
2011-12-04, 03:35:05,VALID,999.846,VALID,0,VALID,95.2466,VALID,0,VALID,24.0521,VALID,12,VALID,0.46875,
2011-12-04, 03:36:05,VALID,999.823,VALID,0,VALID,95.2161,VALID,0,VALID,24.0308,VALID,12,VALID,0.452344,
2011-12-04, 03:37:05,VALID,999.846,VALID,0,VALID,95.2771,VALID,0.0815089,VALID,24.0521,VALID,12,VALID,0.545313,
2011-12-04, 03:38:05,VALID,999.86,VALID,0,VALID,95.2618,VALID,0,VALID,24.0521,VALID,12,VALID,0.522656,
2011-12-04, 03:39:05,VALID,999.862,VALID,0,VALID,95.2695,VALID,0.0815089,VALID,24.0308,VALID,12,VALID,0.428516,
2011-12-04, 03:40:05,VALID,999.867,VALID,0,VALID,95.2847,VALID,0.0815089,VALID,24.0716,VALID,12,VALID,0.619531,
2011-12-04, 03:41:05,VALID,999.857,VALID,0,VALID,95.2695,VALID,0,VALID,24.0716,VALID,11,VALID,0.558984,
2011-12-04, 03:42:05,VALID,999.878,VALID,0,VALID,95.2466,VALID,0,VALID,24.0308,VALID,11,VALID,0.65,
2011-12-04, 03:43:05,VALID,999.858,VALID,0,VALID,95.2695,VALID,0.0815089,VALID,24.0308,VALID,11,VALID,0.571875,